TimeEST,TemperatureF,Dew PointF,Humidity,Sea Level PressureIn,VisibilityMPH,Wind Direction,Wind SpeedMPH,Gust SpeedMPH,PrecipitationIn,Events,Conditions,WindDirDegrees,DateUTC
12:55 AM,39.0,34.7,84,30.27,10.0,Calm,Calm,-,N/A,,Clear,0,2012-11-14 05:55:00
1:55 AM,37.8,33.8,86,30.26,10.0,Calm,Calm,-,N/A,,Clear,0,2012-11-14 06:55:00
2:55 AM,36.9,33.4,87,30.25,10.0,WNW,3.5,-,N/A,,Clear,290,2012-11-14 07:55:00
3:55 AM,37.6,34.5,89,30.26,10.0,WNW,4.6,-,N/A,,Scattered Clouds,290,2012-11-14 08:55:00
4:34 AM,41.0,37.4,87,30.27,10.0,Calm,Calm,-,N/A,,Overcast,0,2012-11-14 09:34:00
4:47 AM,42.8,39.2,87,30.26,10.0,Calm,Calm,-,N/A,,Overcast,0,2012-11-14 09:47:00
4:55 AM,44.6,39.6,82,30.26,10.0,Calm,Calm,-,N/A,,Overcast,0,2012-11-14 09:55:00
5:20 AM,46.4,41.0,81,30.26,6.0,NNE,3.5,-,N/A,,Haze,20,2012-11-14 10:20:00
5:21 AM,46.4,41.0,81,30.26,6.0,NNE,3.5,-,N/A,,Haze,30,2012-11-14 10:21:00
5:55 AM,48.0,40.8,76,30.28,10.0,Variable,3.5,-,N/A,,Overcast,0,2012-11-14 10:55:00
6:04 AM,48.2,41.0,76,30.28,10.0,Calm,Calm,-,N/A,,Overcast,0,2012-11-14 11:04:00
6:55 AM,48.9,41.0,74,30.30,10.0,NE,4.6,-,N/A,,Overcast,50,2012-11-14 11:55:00
7:55 AM,49.6,41.2,73,30.31,10.0,Variable,3.5,-,N/A,,Overcast,0,2012-11-14 12:55:00
8:54 AM,51.8,42.8,71,30.32,10.0,ENE,8.1,-,N/A,,Overcast,60,2012-11-14 13:54:00
8:55 AM,51.1,42.6,73,30.32,10.0,ENE,6.9,-,N/A,,Overcast,60,2012-11-14 13:55:00
9:55 AM,52.2,42.4,69,30.32,10.0,ENE,8.1,17.3,N/A,,Overcast,70,2012-11-14 14:55:00
10:55 AM,54.0,43.0,66,30.32,10.0,ENE,6.9,-,N/A,,Overcast,60,2012-11-14 15:55:00
11:55 AM,55.0,43.9,66,30.30,10.0,East,5.8,-,N/A,,Overcast,80,2012-11-14 16:55:00
12:55 PM,55.0,44.4,67,30.28,10.0,East,8.1,-,N/A,,Overcast,90,2012-11-14 17:55:00
1:55 PM,55.0,45.0,69,30.27,10.0,East,8.1,-,N/A,,Overcast,80,2012-11-14 18:55:00
2:55 PM,54.5,45.0,70,30.25,10.0,ENE,6.9,-,N/A,,Overcast,60,2012-11-14 19:55:00
3:55 PM,53.4,44.8,73,30.25,10.0,ENE,5.8,-,N/A,,Overcast,60,2012-11-14 20:55:00
4:55 PM,52.3,44.8,75,30.26,10.0,ENE,5.8,-,N/A,,Overcast,60,2012-11-14 21:55:00
5:55 PM,51.4,44.4,77,30.26,10.0,ENE,5.8,-,N/A,,Overcast,60,2012-11-14 22:55:00
6:17 PM,51.8,44.6,76,30.27,10.0,ENE,8.1,-,N/A,,Overcast,70,2012-11-14 23:17:00
6:53 PM,50.0,44.6,82,30.28,10.0,ENE,8.1,-,N/A,,Overcast,70,2012-11-14 23:53:00
6:55 PM,50.4,43.9,78,30.28,10.0,ENE,5.8,-,N/A,,Overcast,60,2012-11-14 23:55:00
7:01 PM,50.0,44.6,82,30.29,10.0,Variable,5.8,-,N/A,Rain,Light Rain,0,2012-11-15 00:01:00
7:04 PM,50.0,44.6,82,30.29,10.0,ENE,6.9,-,N/A,Rain,Light Rain,70,2012-11-15 00:04:00
7:24 PM,48.2,44.6,87,30.29,10.0,NNE,9.2,-,N/A,,Overcast,30,2012-11-15 00:24:00
7:33 PM,48.2,44.6,87,30.29,10.0,NE,6.9,-,N/A,,Overcast,40,2012-11-15 00:33:00
7:55 PM,48.7,43.5,82,30.29,10.0,North,5.8,-,0.00,,Overcast,10,2012-11-15 00:55:00
8:10 PM,48.2,42.8,82,30.30,10.0,North,4.6,-,N/A,Rain,Light Rain,10,2012-11-15 01:10:00
8:21 PM,48.2,42.8,82,30.29,10.0,North,5.8,-,N/A,,Overcast,10,2012-11-15 01:21:00
8:24 PM,48.2,42.8,82,30.30,10.0,Variable,3.5,-,N/A,,Light Drizzle,0,2012-11-15 01:24:00
8:31 PM,48.2,44.6,87,30.29,10.0,North,5.8,-,N/A,Rain,Light Rain,10,2012-11-15 01:31:00
8:32 PM,48.2,44.6,87,30.29,10.0,North,5.8,-,N/A,Rain,Light Rain,10,2012-11-15 01:32:00
8:34 PM,48.2,44.6,87,30.29,10.0,North,4.6,-,N/A,Rain,Light Rain,10,2012-11-15 01:34:00
8:55 PM,48.0,44.2,87,30.29,10.0,North,5.8,-,0.00,,Light Drizzle,10,2012-11-15 01:55:00
9:14 PM,48.2,44.6,87,30.29,10.0,NNE,3.5,-,N/A,,Light Drizzle,30,2012-11-15 02:14:00
9:15 PM,48.2,44.6,87,30.29,10.0,NNE,4.6,-,N/A,,Overcast,20,2012-11-15 02:15:00
9:55 PM,48.0,43.7,85,30.30,10.0,NNE,4.6,-,0.00,,Overcast,30,2012-11-15 02:55:00
10:55 PM,47.7,43.7,86,30.28,10.0,Calm,Calm,-,N/A,,Overcast,0,2012-11-15 03:55:00
11:55 PM,47.7,43.5,86,30.26,10.0,Variable,4.6,-,N/A,,Overcast,0,2012-11-15 04:55:00